User: anonymous   Login
Location: Sungai Anya
(2.6167°N, 114.0500°E)
Time: 14:43:21
(UTC+00:00)
Language:

Iridium 4 Rocket - Orbit

View from above orbital plane
View from above orbital plane
View from above satellite
View from above satellite

Ground track
Ground track

The orbit data is extracted from the following two-line orbital elements,

1 24797U 97020F   22021.95474892  .00000258  00000-0  48467-4 0  9990
2 24797  86.8944  98.1542 0226704 115.2770  55.6099 14.44331039300338
Epoch (UTC): 21 January 2022 22:54:50
Eccentricity: 0.0226704
inclination: 86.8944°
perigee height: 583 km
apogee height: 905 km
right ascension of ascending node: 98.1542°
argument of perigee: 115.2770°
revolutions per day: 14.44331039
mean anomaly at epoch: 55.6099°
orbit number at epoch: 30033

The dashed part of the orbit path shows where the satellite is in the earth's shadow,  

DLR